When you browse on this site, cookies collect data to enhance your experience and personalize the content and advertising you see.
Visit our Privacy Policy to learn more. By continuing to use the site, you agree to this use of cookies and data.

Hourly Weather Tehmenevo

Today, 13 July, Monday

Time Temperature Precipitation Wind Pressure Humidity
00:00 +13°C° 0 mm 2 mps 748 mmHg 94%
01:00 +12°C° 0 mm 2 mps 748 mmHg 95%
02:00 +12°C° 0 mm 2 mps 748 mmHg 96%
03:00 +12°C° 0 mm 2 mps 748 mmHg 94%
04:00 +12°C° 0 mm 2 mps 747 mmHg 93%
05:00 +12°C° 0 mm 2 mps 747 mmHg 92%
06:00 +12°C° 0.1 mm 3 mps 747 mmHg 92%
07:00 +12°C° 0.1 mm 3 mps 747 mmHg 92%
08:00 +12°C° 0.1 mm 3 mps 747 mmHg 92%
09:00 +13°C° 0 mm 3 mps 747 mmHg 92%
10:00 +13°C° 0 mm 3 mps 747 mmHg 91%
11:00 +13°C° 0 mm 4 mps 746 mmHg 91%
12:00 +13°C° 0.2 mm 4 mps 746 mmHg 92%
13:00 +13°C° 0.2 mm 4 mps 746 mmHg 92%
14:00 +13°C° 0.2 mm 4 mps 746 mmHg 93%
15:00 +13°C° 0.3 mm 4 mps 746 mmHg 93%
16:00 +13°C° 0.3 mm 3 mps 745 mmHg 94%
17:00 +13°C° 0.3 mm 3 mps 745 mmHg 95%
18:00 +13°C° 0 mm 3 mps 745 mmHg 95%
19:00 +12°C° 0 mm 3 mps 745 mmHg 95%
20:00 +13°C° 0 mm 2 mps 745 mmHg 95%
21:00 +13°C° 0 mm 2 mps 745 mmHg 95%
22:00 +13°C° 0 mm 2 mps 745 mmHg 95%
23:00 +13°C° 0 mm 2 mps 745 mmHg 96%

Tomorrow, 14 July, Tuesday

Time Temperature Precipitation Wind Pressure Humidity
00:00 +13°C° 0 mm 2 mps 745 mmHg 96%
01:00 +13°C° 0 mm 2 mps 745 mmHg 96%
02:00 +13°C° 0 mm 2 mps 745 mmHg 97%
03:00 +13°C° 0 mm 2 mps 745 mmHg 96%
04:00 +13°C° 0 mm 2 mps 744 mmHg 96%
05:00 +13°C° 0 mm 3 mps 744 mmHg 95%
06:00 +14°C° 0 mm 3 mps 744 mmHg 89%
07:00 +16°C° 0 mm 3 mps 745 mmHg 84%
08:00 +17°C° 0 mm 4 mps 745 mmHg 78%
09:00 +18°C° 0 mm 4 mps 745 mmHg 72%
10:00 +20°C° 0 mm 4 mps 744 mmHg 67%
11:00 +21°C° 0 mm 5 mps 744 mmHg 61%
12:00 +21°C° 0 mm 5 mps 744 mmHg 60%
13:00 +22°C° 0 mm 5 mps 744 mmHg 59%
14:00 +22°C° 0 mm 5 mps 744 mmHg 58%
15:00 +22°C° 0 mm 5 mps 743 mmHg 61%
16:00 +21°C° 0 mm 5 mps 743 mmHg 63%
17:00 +21°C° 0 mm 5 mps 742 mmHg 66%
18:00 +20°C° 0.2 mm 5 mps 742 mmHg 70%
19:00 +19°C° 0.2 mm 5 mps 741 mmHg 73%
20:00 +17°C° 0.2 mm 5 mps 741 mmHg 77%
21:00 +16°C° 1.9 mm 5 mps 740 mmHg 83%
22:00 +15°C° 1.9 mm 5 mps 739 mmHg 89%
23:00 +14°C° 1.9 mm 6 mps 739 mmHg 95%

Day after tomorrow, 15 July, Wednesday

Time Temperature Precipitation Wind Pressure Humidity
00:00 +14°C° 3.5 mm 6 mps 739 mmHg 96%
01:00 +14°C° 3.5 mm 7 mps 738 mmHg 96%
02:00 +12°C° 3.5 mm 7 mps 738 mmHg 96%
03:00 +12°C° 2.2 mm 7 mps 738 mmHg 96%
04:00 +12°C° 2.2 mm 7 mps 738 mmHg 96%
05:00 +12°C° 2.2 mm 7 mps 738 mmHg 96%
06:00 +12°C° 0.6 mm 7 mps 738 mmHg 96%
07:00 +12°C° 0.6 mm 7 mps 738 mmHg 96%
08:00 +12°C° 0.6 mm 7 mps 738 mmHg 96%
09:00 +12°C° 0.1 mm 7 mps 738 mmHg 95%
10:00 +14°C° 0.1 mm 6 mps 739 mmHg 94%
11:00 +14°C° 0.1 mm 6 mps 739 mmHg 92%
12:00 +14°C° 0.2 mm 6 mps 739 mmHg 93%
13:00 +14°C° 0.2 mm 6 mps 739 mmHg 93%
14:00 +14°C° 0.2 mm 6 mps 739 mmHg 93%
15:00 +14°C° 0.2 mm 6 mps 739 mmHg 93%
16:00 +14°C° 0.2 mm 6 mps 739 mmHg 93%
17:00 +14°C° 0.2 mm 6 mps 739 mmHg 92%
18:00 +14°C° 0.2 mm 6 mps 740 mmHg 93%
19:00 +13°C° 0.2 mm 5 mps 740 mmHg 94%
20:00 +13°C° 0.2 mm 5 mps 740 mmHg 95%
21:00 +13°C° 0 mm 5 mps 740 mmHg 95%
22:00 +13°C° 0 mm 5 mps 740 mmHg 95%
23:00 +13°C° 0 mm 5 mps 740 mmHg 95%

16 July, Thursday

Time Temperature Precipitation Wind Pressure Humidity
00:00 +13°C° 0 mm 5 mps 740 mmHg 94%
01:00 +13°C° 0 mm 5 mps 740 mmHg 93%
02:00 +13°C° 0 mm 5 mps 740 mmHg 92%
03:00 +13°C° 0.1 mm 5 mps 740 mmHg 93%
04:00 +13°C° 0.1 mm 5 mps 740 mmHg 93%
05:00 +13°C° 0.1 mm 5 mps 740 mmHg 93%
06:00 +13°C° 0.3 mm 5 mps 740 mmHg 94%
07:00 +13°C° 0.3 mm 5 mps 740 mmHg 95%
08:00 +13°C° 0.3 mm 5 mps 740 mmHg 95%
09:00 +13°C° 0.3 mm 5 mps 740 mmHg 95%
10:00 +13°C° 0.3 mm 5 mps 740 mmHg 95%
11:00 +14°C° 0.3 mm 5 mps 741 mmHg 94%
12:00 +14°C° 0.6 mm 5 mps 741 mmHg 95%
13:00 +14°C° 0.6 mm 5 mps 741 mmHg 95%
14:00 +14°C° 0.6 mm 5 mps 742 mmHg 96%
15:00 +14°C° 0.4 mm 5 mps 742 mmHg 96%
16:00 +14°C° 0.4 mm 4 mps 742 mmHg 96%
17:00 +14°C° 0.4 mm 4 mps 742 mmHg 96%
18:00 +14°C° 0.2 mm 4 mps 742 mmHg 96%
19:00 +13°C° 0.2 mm 4 mps 742 mmHg 96%
20:00 +13°C° 0.2 mm 3 mps 743 mmHg 96%
21:00 +13°C° 0 mm 3 mps 743 mmHg 96%
22:00 +13°C° 0 mm 3 mps 743 mmHg 96%
23:00 +13°C° 0 mm 3 mps 743 mmHg 96%

17 July, Friday

Time Temperature Precipitation Wind Pressure Humidity
00:00 +13°C° 0 mm 3 mps 743 mmHg 97%
01:00 +12°C° 0 mm 3 mps 743 mmHg 97%
02:00 +12°C° 0 mm 3 mps 743 mmHg 97%
03:00 +12°C° 0 mm 3 mps 743 mmHg 97%
04:00 +12°C° 0 mm 3 mps 743 mmHg 96%
05:00 +12°C° 0 mm 3 mps 743 mmHg 96%
06:00 +13°C° 0 mm 3 mps 743 mmHg 95%
07:00 +13°C° 0 mm 3 mps 743 mmHg 94%
08:00 +14°C° 0 mm 3 mps 744 mmHg 92%
09:00 +16°C° 0 mm 3 mps 744 mmHg 89%
10:00 +16°C° 0 mm 3 mps 744 mmHg 86%
11:00 +17°C° 0 mm 3 mps 744 mmHg 83%
12:00 +17°C° 0 mm 4 mps 745 mmHg 82%
13:00 +17°C° 0 mm 4 mps 745 mmHg 82%
14:00 +17°C° 0 mm 4 mps 745 mmHg 81%
15:00 +17°C° 0 mm 3 mps 745 mmHg 81%
16:00 +17°C° 0 mm 3 mps 745 mmHg 81%
17:00 +17°C° 0 mm 3 mps 745 mmHg 81%
18:00 +16°C° 0 mm 3 mps 746 mmHg 84%
19:00 +15°C° 0 mm 2 mps 746 mmHg 87%
20:00 +14°C° 0 mm 2 mps 746 mmHg 90%
21:00 +14°C° 0 mm 2 mps 746 mmHg 91%
22:00 +14°C° 0 mm 2 mps 746 mmHg 91%
23:00 +13°C° 0 mm 2 mps 746 mmHg 92%

18 July, Saturday

Time Temperature Precipitation Wind Pressure Humidity
00:00 +13°C° 0 mm 2 mps 746 mmHg 91%
01:00 +13°C° 0 mm 2 mps 746 mmHg 91%
02:00 +12°C° 0 mm 2 mps 747 mmHg 91%
03:00 +13°C° 0 mm 2 mps 747 mmHg 90%
04:00 +13°C° 0 mm 2 mps 747 mmHg 89%
05:00 +12°C° 0 mm 3 mps 747 mmHg 88%
06:00 +12°C° 0 mm 3 mps 747 mmHg 87%
07:00 +12°C° 0 mm 3 mps 747 mmHg 86%
08:00 +12°C° 0 mm 3 mps 747 mmHg 85%
09:00 +12°C° 0 mm 3 mps 747 mmHg 85%
10:00 +12°C° 0 mm 3 mps 747 mmHg 85%
11:00 +12°C° 0 mm 3 mps 747 mmHg 85%
12:00 +13°C° 0 mm 3 mps 748 mmHg 83%
13:00 +14°C° 0 mm 3 mps 748 mmHg 80%
14:00 +16°C° 0 mm 3 mps 748 mmHg 77%
15:00 +14°C° 0 mm 3 mps 748 mmHg 79%
16:00 +14°C° 0 mm 3 mps 748 mmHg 80%
17:00 +15°C° 0 mm 2 mps 748 mmHg 81%
18:00 +14°C° 0 mm 2 mps 748 mmHg 84%
19:00 +14°C° 0 mm 2 mps 748 mmHg 86%
20:00 +13°C° 0 mm 2 mps 748 mmHg 89%
21:00 +13°C° 0 mm 2 mps 748 mmHg 86%
22:00 +13°C° 0 mm 2 mps 748 mmHg 83%
23:00 +12°C° 0 mm 3 mps 748 mmHg 80%
Show more